| time (UTC) | temp C | wind direction | speed KPH | gust KPH | rain 1hr cm | rain 24hr cm | rain mn cm | humidity % | barometer mb |
| 20260506234903 | 8 | 135 | 3.2 | 3.2 | 0.00 | 0.00 | 0.00 | 94 | 1012.0 |
| 20260506224903 | 8 | 218 | 1.6 | 1.6 | 0.00 | 0.00 | 0.00 | 94 | 1011.9 |
| 20260506214903 | 8 | 150 | 3.2 | 3.2 | 0.00 | 0.00 | 0.00 | 94 | 1011.7 |
| 20260506204903 | 8 | 211 | 0.0 | 0.0 | 0.00 | 0.00 | 0.00 | 95 | 1011.6 |
| 20260506194903 | 7 | 180 | 1.6 | 1.6 | 0.00 | 0.00 | 0.00 | 95 | 1011.1 |
| 20260506184903 | 7 | 0 | 0.0 | 0.0 | 0.00 | 0.00 | 0.00 | 92 | 1010.5 |
| 20260506174903 | 8 | 250 | 1.6 | 4.8 | 0.00 | 0.00 | 0.00 | 90 | 1010.0 |
| 20260506164903 | 8 | 134 | 6.4 | 8.0 | 0.18 | 0.00 | 0.00 | 87 | 1010.0 |
| 20260506154903 | 10 | 216 | 1.6 | 1.6 | 0.05 | 0.00 | 0.00 | 74 | 1009.2 |
| 20260506144903 | 15 | 313 | 3.2 | 6.4 | 0.00 | 0.00 | 0.00 | 62 | 1007.1 |
| 20260506134903 | 13 | 12 | 6.4 | 4.8 | 0.00 | 0.00 | 0.00 | 70 | 1007.1 |
| 20260506124903 | 13 | 255 | 1.6 | 1.6 | 0.00 | 0.00 | 0.00 | 69 | 1007.8 |
| 20260506114903 | 15 | 294 | 8.0 | 8.0 | 0.00 | 0.00 | 0.00 | 65 | 1006.6 |
| 20260506104903 | 15 | 301 | 3.2 | 4.8 | 0.00 | 0.00 | 0.00 | 59 | 1006.6 |
| 20260506094904 | 15 | 352 | 11.3 | 6.4 | 0.00 | 0.00 | 0.00 | 60 | 1007.0 |
| 20260506084903 | 13 | 34 | 3.2 | 3.2 | 0.00 | 0.00 | 0.00 | 71 | 1007.5 |
| 20260506044903 | 7 | 145 | 1.6 | 1.6 | 0.00 | 0.00 | 0.00 | 93 | 1008.4 |
| 20260506034903 | 8 | 156 | 1.6 | 1.6 | 0.00 | 0.00 | 0.00 | 90 | 1008.9 |
| 20260506024904 | 8 | 206 | 3.2 | 1.6 | 0.00 | 0.00 | 0.00 | 88 | 1009.5 |
| 20260506014903 | 8 | 220 | 3.2 | 1.6 | 0.00 | 0.00 | 0.00 | 88 | 1010.2 |
| 20260506004903 | 9 | 0 | 0.0 | 0.0 | 0.00 | 0.00 | 0.00 | 89 | 1010.4 |